Weather History for Rexburg, ID

Change the Weather History Date:

Saturday, December 8, 2012

  Actual Average Record
Temperature  
Mean Temperature 24 °F 22 °F  
Max Temperature 31 °F 30 °F 46 °F (2006)
Min Temperature 16 °F 13 °F -16 °F (2013)
Degree Days  
Heating Degree Days 41 44  
Month to date heating degree days 231 340  
Since 1 July heating degree days 1918 2352  
Cooling Degree Days 0 0  
Month to date cooling degree days 0 0  
Year to date cooling degree days 419 208  
Moisture  
Dew Point 8 °F    
Average Humidity 51    
Maximum Humidity 75    
Minimum Humidity 27    
Precipitation  
Precipitation T in 0.02 in 0.09 in (2008)
Month to date precipitation 0.65 0.20  
Year to date precipitation 9.70 12.23  
Sea Level Pressure  
Sea Level Pressure 29.97 in    
Wind  
Wind Speed 9 mph (NW)    
Max Wind Speed 23 mph    
Max Gust Speed 30 mph    
Visibility 10 miles    
Events Snow    
T = Trace of Precipitation, MM = Missing Value Source: NWS Daily Summary

Daily Weather History Graph

Daily Weather History Graph

Search for Another Location

Airport:

Trip Planner

Search our weather history database for the weather conditions in past years. The results will help you decide how hot, cold, wet, or windy it might be!

Date:

Astronomy

Dec. 08, 2012 Rise Set
Actual Time 7:49 AM MST 4:49 PM MST
Civil Twilight 7:16 AM MST 5:22 PM MST
Nautical Twilight 6:40 AM MST 5:58 PM MST
Astronomical Twilight 6:05 AM MST 6:33 PM MST
Moon 2:09 AM MST (12/8) 1:29 PM MST (12/8)
Length of Visible Light 10h 05m
Length of Day
9h 00m
Waning Crescent, 27% of the Moon is Illuminated
Dec 8
Waning Crescent
Dec 13
New
Dec 19
First Quarter
Dec 28
Full
Jan 4
Last Quarter

Hourly Weather History & Observations

Time (MST) Temp. Windchill Dew Point Humidity Pressure Visibility Wind Dir Wind Speed Gust Speed Precip Events Conditions
12:53 AM 30.0 °F 17.2 °F 21.0 °F 69% 29.81 in 10.0 mi SW 20.7 mph 29.9 mph N/A   Clear
1:53 AM 30.0 °F 18.3 °F 21.0 °F 69% 29.79 in 10.0 mi SW 17.3 mph 25.3 mph N/A   Clear
2:53 AM 28.9 °F 16.1 °F 21.9 °F 75% 29.78 in 10.0 mi SSW 19.6 mph 27.6 mph N/A   Clear
3:53 AM 28.0 °F 15.7 °F 21.9 °F 78% 29.78 in 10.0 mi SW 17.3 mph 26.5 mph N/A   Clear
4:53 AM 28.0 °F 17.5 °F 21.9 °F 78% 29.82 in 10.0 mi WSW 12.7 mph - N/A   Scattered Clouds
5:11 AM 24.8 °F 14.0 °F 19.4 °F 80% 29.78 in 10.0 mi North 11.5 mph 25.3 mph 0.00 in Snow Light Snow
5:29 AM 24.8 °F 13.4 °F 19.4 °F 80% 29.79 in 2.5 mi North 12.7 mph - 0.00 in Snow Light Snow
5:37 AM 24.8 °F 15.3 °F 19.4 °F 80% 29.79 in 6.0 mi North 9.2 mph 17.3 mph 0.00 in Snow Light Snow
5:53 AM 25.0 °F 20.7 °F 18.0 °F 75% 29.87 in 9.0 mi NNE 3.5 mph - 0.00 in Snow Light Snow
6:53 AM 27.0 °F 23.0 °F 12.9 °F 56% 29.89 in 10.0 mi Variable 3.5 mph 20.7 mph 0.00 in   Overcast
7:53 AM 25.0 °F 15.5 °F 6.1 °F 45% 29.92 in 10.0 mi NW 9.2 mph 19.6 mph N/A   Mostly Cloudy
8:53 AM 23.0 °F 14.7 °F 5.0 °F 46% 29.95 in 10.0 mi NNW 6.9 mph 18.4 mph N/A   Clear
9:53 AM 27.0 °F 19.5 °F 3.9 °F 37% 29.99 in 10.0 mi Variable 6.9 mph 17.3 mph N/A   Clear
10:53 AM 27.0 °F 14.7 °F -2.9 °F 27% 30.01 in 10.0 mi NW 16.1 mph 26.5 mph N/A   Clear
11:53 AM 28.0 °F 15.7 °F -0.9 °F 29% 30.00 in 10.0 mi WNW 17.3 mph 26.5 mph N/A   Partly Cloudy
12:53 PM 30.0 °F 21.1 °F -0.9 °F 27% 30.00 in 10.0 mi WNW 10.4 mph 23.0 mph N/A   Mostly Cloudy
1:53 PM 28.9 °F 17.7 °F -2.0 °F 26% 30.00 in 10.0 mi WNW 15.0 mph 21.9 mph N/A   Scattered Clouds
2:53 PM 28.9 °F 19.2 °F -2.0 °F 26% 30.02 in 10.0 mi WNW 11.5 mph - N/A   Clear
3:53 PM 27.0 °F 18.7 °F -2.9 °F 27% 30.05 in 10.0 mi NW 8.1 mph 20.7 mph N/A   Clear
4:53 PM 25.0 °F 16.3 °F -0.9 °F 33% 30.08 in 10.0 mi NW 8.1 mph - N/A   Clear
5:53 PM 23.0 °F 18.4 °F 1.9 °F 40% 30.12 in 10.0 mi NNW 3.5 mph - N/A   Clear
6:53 PM 19.9 °F - 3.9 °F 50% 30.14 in 10.0 mi Calm Calm - N/A   Clear
7:53 PM 18.0 °F - 3.0 °F 52% 30.16 in 10.0 mi Calm Calm - N/A   Clear
8:53 PM 17.1 °F 11.7 °F 5.0 °F 59% 30.19 in 10.0 mi East 3.5 mph - N/A   Clear
9:53 PM 18.0 °F 12.7 °F 5.0 °F 57% 30.17 in 10.0 mi ENE 3.5 mph - N/A   Mostly Cloudy
10:53 PM 18.0 °F - 3.9 °F 54% 30.19 in 10.0 mi Calm Calm - N/A   Overcast
11:53 PM 18.0 °F - 5.0 °F 57% 30.20 in 10.0 mi Calm Calm - N/A   Overcast